Project,Study,Ord_Occ,Event_Num,Date_Time_UTC,Date_Time_PST,Lat_Dec,Lon_Dec,Sta_ID,Line,Sta,Depth,Pressure,Temp0,Temp1,Salt0,CorrSalt0,Salt1,CorrSalt1,O2ml/L,AveCorrO2ml/L,StaCorrO2ml/L,FluorV,AveEstChl,StaEstChl,ISUSV,AveEstNO3,StaEstNO3,SigThetaTS0,SigThetaTS1,BAT,XMiss,SPAR,PAR,BTL_Depth,BTL_Temp,BTL_Salt,BTL_O2ml/L,BTL_Chl,BTL_Pha,BTL_NO3
CalCOFI,0701JD,060,589,27-Jan-2007 9:38:19 AM,27-Jan-2007 1:38:19 AM,33.15050,-123.22168,080.0 090.0,080.0,090.0,515.000,519.314,5.0621,5.0627,34.1711,34.1698,34.1676,34.1677,0.51845,0.60,0.64,0.0246,,,1.7950,42.20,41.549,27.0157,27.0128,0.3970,90.5522,5.5474e+00,9.9990e+03,516,5.06 ,34.168,  .56,,,42.0
CalCOFI,0701JD,060,589,27-Jan-2007 9:38:22 AM,27-Jan-2007 1:38:22 AM,33.15050,-123.22168,080.0 090.0,080.0,090.0,514.000,518.304,5.0643,5.0654,34.1712,34.1699,34.1676,34.1677,0.51777,0.60,0.63,0.0244,,,1.8000,42.35,41.704,27.0155,27.0125,0.3972,90.5478,5.1937e+00,9.9990e+03,,,,,,,
CalCOFI,0701JD,060,589,27-Jan-2007 9:38:33 AM,27-Jan-2007 1:38:33 AM,33.15050,-123.22168,080.0 090.0,080.0,090.0,513.000,517.295,5.0704,5.0711,34.1724,34.1711,34.1683,34.1684,0.51714,0.60,0.63,0.0246,,,1.8009,42.37,41.732,27.0158,27.0125,-9.990e-29,-9.990e-29,5.6720e+00,9.9990e+03,,,,,,,
CalCOFI,0701JD,060,589,27-Jan-2007 9:38:34 AM,27-Jan-2007 1:38:34 AM,33.15050,-123.22168,080.0 090.0,080.0,090.0,512.000,516.285,5.0883,5.0900,34.1729,34.1716,34.1687,34.1688,0.51807,0.60,0.64,0.0246,,,1.8185,42.89,42.278,27.0141,27.0106,-9.990e-29,-9.990e-29,5.2809e+00,9.9990e+03,,,,,,,
CalCOFI,0701JD,060,589,27-Jan-2007 9:38:35 AM,27-Jan-2007 1:38:35 AM,33.15050,-123.22168,080.0 090.0,080.0,090.0,511.000,515.275,5.0952,5.0960,34.1710,34.1697,34.1676,34.1677,0.52173,0.60,0.64,0.0248,,,1.8130,42.73,42.107,27.0118,27.0090,0.3971,90.5504,5.0283e+00,9.9990e+03,,,,,,,
CalCOFI,0701JD,060,589,27-Jan-2007 9:38:36 AM,27-Jan-2007 1:38:36 AM,33.15050,-123.22168,080.0 090.0,080.0,090.0,510.000,514.266,5.0862,5.0867,34.1667,34.1654,34.1638,34.1639,0.52599,0.61,0.64,-9.990e-29,,,1.7906,42.07,41.413,27.0094,27.0070,0.3971,90.5504,5.7411e+00,9.9990e+03,,,,,,,
CalCOFI,0701JD,060,589,27-Jan-2007 9:38:37 AM,27-Jan-2007 1:38:37 AM,33.15050,-123.22168,080.0 090.0,080.0,090.0,509.000,513.256,5.0778,5.0776,34.1637,34.1624,34.1601,34.1602,0.53526,0.62,0.66,-9.990e-29,,,1.7641,41.29,40.591,27.0080,27.0052,0.3974,90.5432,5.5596e+00,9.9990e+03,,,,,,,
CalCOFI,0701JD,060,589,27-Jan-2007 9:38:39 AM,27-Jan-2007 1:38:39 AM,33.15050,-123.22168,080.0 090.0,080.0,090.0,508.000,512.247,5.0499,5.0498,34.1558,34.1545,34.1524,34.1525,0.54596,0.63,0.67,0.0245,,,1.7868,41.96,41.295,27.0049,27.0022,0.3971,90.5507,5.2028e+00,9.9990e+03,,,,,,,
CalCOFI,0701JD,060,589,27-Jan-2007 9:38:41 AM,27-Jan-2007 1:38:41 AM,33.15050,-123.22168,080.0 090.0,080.0,090.0,507.000,511.237,5.0493,5.0515,34.1558,34.1545,34.1527,34.1528,0.55118,0.64,0.68,0.0245,,,1.8008,42.37,41.729,27.0050,27.0023,0.3970,90.5533,5.5438e+00,9.9990e+03,,,,,,,
CalCOFI,0701JD,060,589,27-Jan-2007 9:38:42 AM,27-Jan-2007 1:38:42 AM,33.15050,-123.22168,080.0 090.0,080.0,090.0,506.000,510.227,5.0539,5.0546,34.1560,34.1547,34.1526,34.1527,0.55556,0.64,0.68,0.0241,,,1.7807,41.78,41.106,27.0046,27.0018,0.3967,90.5591,5.3745e+00,9.9990e+03,,,,,,,
CalCOFI,0701JD,060,589,27-Jan-2007 9:38:42 AM,27-Jan-2007 1:38:42 AM,33.15050,-123.22168,080.0 090.0,080.0,090.0,505.000,509.218,5.0527,5.0534,34.1556,34.1543,34.1523,34.1524,0.56100,0.65,0.69,0.0249,,,1.7740,41.58,40.898,27.0044,27.0017,0.3969,90.5545,6.0805e+00,9.9990e+03,,,,,,,
CalCOFI,0701JD,060,589,27-Jan-2007 9:38:43 AM,27-Jan-2007 1:38:43 AM,33.15050,-123.22168,080.0 090.0,080.0,090.0,504.000,508.208,5.0433,5.0433,34.1524,34.1511,34.1498,34.1499,0.56489,0.65,0.69,0.0245,,,1.7580,41.11,40.402,27.0029,27.0009,0.3967,90.5581,4.9110e+00,9.9990e+03,,,,,,,
CalCOFI,0701JD,060,589,27-Jan-2007 9:38:44 AM,27-Jan-2007 1:38:44 AM,33.15050,-123.22168,080.0 090.0,080.0,090.0,503.000,507.199,5.0396,5.0405,34.1511,34.1498,34.1476,34.1477,0.56989,0.66,0.70,0.0245,,,1.7541,41.00,40.281,27.0023,26.9994,0.3971,90.5491,5.4361e+00,9.9990e+03,,,,,,,
CalCOFI,0701JD,060,589,27-Jan-2007 9:38:45 AM,27-Jan-2007 1:38:45 AM,33.15050,-123.22168,080.0 090.0,080.0,090.0,502.000,506.189,5.0423,5.0425,34.1485,34.1472,34.1456,34.1457,0.57353,0.67,0.70,0.0242,,,1.7605,41.19,40.479,26.9999,26.9976,0.3972,90.5466,5.8469e+00,9.9990e+03,,,,,,,
CalCOFI,0701JD,060,589,27-Jan-2007 9:38:45 AM,27-Jan-2007 1:38:45 AM,33.15050,-123.22168,080.0 090.0,080.0,090.0,501.000,505.180,5.0358,5.0368,34.1476,34.1463,34.1444,34.1445,0.57762,0.67,0.71,0.0241,,,1.7618,41.23,40.520,26.9999,26.9973,0.3972,90.5481,5.5905e+00,9.9990e+03,,,,,,,
CalCOFI,0701JD,060,589,27-Jan-2007 9:38:46 AM,27-Jan-2007 1:38:46 AM,33.15050,-123.22168,080.0 090.0,080.0,090.0,500.000,504.170,5.0346,5.0356,34.1472,34.1459,34.1440,34.1441,0.58002,0.67,0.71,0.0244,,,1.7663,41.36,40.659,26.9998,26.9971,0.3970,90.5531,5.4749e+00,9.9990e+03,,,,,,,
CalCOFI,0701JD,060,589,27-Jan-2007 9:38:48 AM,27-Jan-2007 1:38:48 AM,33.15050,-123.22168,080.0 090.0,080.0,090.0,499.000,503.160,5.0426,5.0437,34.1488,34.1475,34.1447,34.1448,0.58143,0.67,0.71,0.0238,,,1.7761,41.65,40.963,27.0001,26.9967,0.3968,90.5574,5.5298e+00,9.9990e+03,,,,,,,
CalCOFI,0701JD,060,589,27-Jan-2007 9:38:49 AM,27-Jan-2007 1:38:49 AM,33.15050,-123.22168,080.0 090.0,080.0,090.0,498.000,502.151,5.0582,5.0609,34.1507,34.1494,34.1468,34.1469,0.58082,0.67,0.71,0.0242,,,1.7817,41.81,41.137,26.9998,26.9964,0.3970,90.5515,5.3611e+00,9.9990e+03,,,,,,,
CalCOFI,0701JD,060,589,27-Jan-2007 9:38:50 AM,27-Jan-2007 1:38:50 AM,33.15050,-123.22168,080.0 090.0,080.0,090.0,497.000,501.141,5.0845,5.0845,34.1526,34.1513,34.1487,34.1488,0.58133,0.67,0.71,0.0243,,,1.7639,41.29,40.585,26.9983,26.9952,0.3968,90.5576,5.7511e+00,9.9990e+03,,,,,,,
CalCOFI,0701JD,060,589,27-Jan-2007 9:38:51 AM,27-Jan-2007 1:38:51 AM,33.15050,-123.22168,080.0 090.0,080.0,090.0,496.000,500.132,5.0943,5.0951,34.1520,34.1507,34.1485,34.1486,0.58133,0.67,0.71,0.0244,,,1.7692,41.44,40.749,26.9967,26.9938,0.3970,90.5520,5.2108e+00,9.9990e+03,,,,,,,
CalCOFI,0701JD,060,589,27-Jan-2007 9:38:53 AM,27-Jan-2007 1:38:53 AM,33.15050,-123.22168,080.0 090.0,080.0,090.0,495.000,499.122,5.1009,5.1005,34.1524,34.1511,34.1486,34.1487,0.58235,0.68,0.71,0.0245,,,1.8010,42.38,41.735,26.9963,26.9933,0.3969,90.5550,5.8625e+00,9.9990e+03,,,,,,,
CalCOFI,0701JD,060,589,27-Jan-2007 9:38:54 AM,27-Jan-2007 1:38:54 AM,33.15050,-123.22168,080.0 090.0,080.0,090.0,494.000,498.113,5.1153,5.1127,34.1528,34.1515,34.1490,34.1491,0.58512,0.68,0.72,0.0242,,,1.7929,42.14,41.484,26.9949,26.9921,0.3969,90.5549,5.5796e+00,9.9990e+03,,,,,,,
CalCOFI,0701JD,060,589,27-Jan-2007 9:38:54 AM,27-Jan-2007 1:38:54 AM,33.15050,-123.22168,080.0 090.0,080.0,090.0,493.000,497.103,5.1170,5.1175,34.1510,34.1497,34.1482,34.1483,0.58811,0.68,0.72,0.0246,,,1.8063,42.53,41.900,26.9932,26.9909,0.3970,90.5517,5.4388e+00,9.9990e+03,,,,,,,
CalCOFI,0701JD,060,589,27-Jan-2007 9:38:55 AM,27-Jan-2007 1:38:55 AM,33.15050,-123.22168,080.0 090.0,080.0,090.0,492.000,496.094,5.1106,5.1115,34.1481,34.1468,34.1448,34.1449,0.58967,0.68,0.72,0.0245,,,1.8012,42.38,41.742,26.9917,26.9890,0.4052,90.3666,5.6536e+00,9.9990e+03,,,,,,,
CalCOFI,0701JD,060,589,27-Jan-2007 9:38:56 AM,27-Jan-2007 1:38:56 AM,33.15050,-123.22168,080.0 090.0,080.0,090.0,491.000,495.084,5.1356,5.1389,34.1498,34.1485,34.1449,34.1450,0.59146,0.69,0.72,0.0244,,,1.7930,42.14,41.487,26.9901,26.9859,0.3975,90.5397,5.0746e+00,9.9990e+03,,,,,,,
CalCOFI,0701JD,060,589,27-Jan-2007 9:38:57 AM,27-Jan-2007 1:38:57 AM,33.15050,-123.22168,080.0 090.0,080.0,090.0,490.000,494.075,5.1683,5.1693,34.1502,34.1489,34.1465,34.1466,0.59136,0.69,0.72,0.0241,,,1.7956,42.22,41.568,26.9867,26.9836,0.3971,90.5512,5.1664e+00,9.9990e+03,,,,,,,
CalCOFI,0701JD,060,589,27-Jan-2007 9:38:58 AM,27-Jan-2007 1:38:58 AM,33.15050,-123.22168,080.0 090.0,080.0,090.0,489.000,493.065,5.1893,5.1893,34.1519,34.1506,34.1474,34.1475,0.59167,0.69,0.73,0.0242,,,1.7690,41.44,40.743,26.9856,26.9820,0.3973,90.5450,5.6769e+00,9.9990e+03,,,,,,,
CalCOFI,0701JD,060,589,27-Jan-2007 9:38:59 AM,27-Jan-2007 1:38:59 AM,33.15050,-123.22168,080.0 090.0,080.0,090.0,488.000,492.056,5.2205,5.2201,34.1532,34.1519,34.1495,34.1496,0.58980,0.68,0.72,0.0242,,,1.7602,41.18,40.470,26.9829,26.9801,0.3972,90.5469,5.3026e+00,9.9990e+03,,,,,,,
CalCOFI,0701JD,060,589,27-Jan-2007 9:39:00 AM,27-Jan-2007 1:39:00 AM,33.15050,-123.22168,080.0 090.0,080.0,090.0,487.000,491.046,5.2251,5.2258,34.1531,34.1518,34.1500,34.1501,0.59127,0.69,0.72,0.0245,,,1.7787,41.72,41.044,26.9823,26.9799,0.3975,90.5411,5.1227e+00,9.9990e+03,,,,,,,
CalCOFI,0701JD,060,589,27-Jan-2007 9:39:01 AM,27-Jan-2007 1:39:01 AM,33.15050,-123.22168,080.0 090.0,080.0,090.0,486.000,490.037,5.2303,5.2308,34.1536,34.1523,34.1505,34.1506,0.59211,0.69,0.73,0.0244,,,1.7907,42.07,41.416,26.9821,26.9796,0.3972,90.5468,5.2326e+00,9.9990e+03,,,,,,,
CalCOFI,0701JD,060,589,27-Jan-2007 9:39:02 AM,27-Jan-2007 1:39:02 AM,33.15050,-123.22168,080.0 090.0,080.0,090.0,485.000,489.027,5.2304,5.2321,34.1515,34.1502,34.1494,34.1495,0.59603,0.69,0.73,0.0242,,,1.7860,41.94,41.270,26.9805,26.9786,0.3972,90.5474,5.7512e+00,9.9990e+03,,,,,,,
CalCOFI,0701JD,060,589,27-Jan-2007 9:39:03 AM,27-Jan-2007 1:39:03 AM,33.15050,-123.22168,080.0 090.0,080.0,090.0,484.000,488.018,5.2224,5.2230,34.1489,34.1476,34.1458,34.1459,0.60038,0.70,0.74,0.0249,,,1.7841,41.88,41.211,26.9793,26.9768,0.3972,90.5480,5.7596e+00,9.9990e+03,,,,,,,
CalCOFI,0701JD,060,589,27-Jan-2007 9:39:04 AM,27-Jan-2007 1:39:04 AM,33.15050,-123.22168,080.0 090.0,080.0,090.0,483.000,487.008,5.2363,5.2359,34.1491,34.1478,34.1458,34.1459,0.60561,0.70,0.74,-9.990e-29,,,1.7981,42.29,41.645,26.9778,26.9753,0.3972,90.5475,5.5338e+00,9.9990e+03,,,,,,,
CalCOFI,0701JD,060,589,27-Jan-2007 9:39:05 AM,27-Jan-2007 1:39:05 AM,33.15050,-123.22168,080.0 090.0,080.0,090.0,482.000,485.999,5.2207,5.2197,34.1433,34.1420,34.1418,34.1419,0.60610,0.70,0.74,-9.990e-29,,,1.7808,41.78,41.109,26.9750,26.9740,0.3977,90.5368,5.4090e+00,9.9990e+03,,,,,,,
CalCOFI,0701JD,060,589,27-Jan-2007 9:39:06 AM,27-Jan-2007 1:39:06 AM,33.15050,-123.22168,080.0 090.0,080.0,090.0,481.000,484.989,5.2369,5.2349,34.1489,34.1476,34.1424,34.1425,0.60479,0.70,0.74,-9.990e-29,,,1.7710,41.50,40.805,26.9776,26.9727,0.3974,90.5436,4.6315e+00,9.9990e+03,,,,,,,
CalCOFI,0701JD,060,589,27-Jan-2007 9:39:07 AM,27-Jan-2007 1:39:07 AM,33.15050,-123.22168,080.0 090.0,080.0,090.0,480.000,483.980,5.2926,5.2907,34.1536,34.1523,34.1492,34.1493,0.60646,0.71,0.74,0.0243,,,1.7604,41.18,40.476,26.9748,26.9716,0.3973,90.5461,5.4199e+00,9.9990e+03,,,,,,,
CalCOFI,0701JD,060,589,27-Jan-2007 9:39:08 AM,27-Jan-2007 1:39:08 AM,33.15050,-123.22168,080.0 090.0,080.0,090.0,479.000,482.970,5.3020,5.3023,34.1523,34.1510,34.1500,34.1501,0.61347,0.71,0.75,0.0245,,,1.7611,41.20,40.498,26.9727,26.9708,0.3974,90.5425,5.5860e+00,9.9990e+03,,,,,,,
CalCOFI,0701JD,060,589,27-Jan-2007 9:39:09 AM,27-Jan-2007 1:39:09 AM,33.15050,-123.22168,080.0 090.0,080.0,090.0,478.000,481.961,5.2720,5.2711,34.1420,34.1407,34.1404,34.1405,0.62265,0.72,0.76,0.0243,,,1.7603,41.18,40.473,26.9680,26.9668,0.3975,90.5415,5.7582e+00,9.9990e+03,,,,,,,
CalCOFI,0701JD,060,589,27-Jan-2007 9:39:10 AM,27-Jan-2007 1:39:10 AM,33.15050,-123.22168,080.0 090.0,080.0,090.0,477.000,480.951,5.2572,5.2577,34.1371,34.1358,34.1346,34.1347,0.63414,0.74,0.78,0.0245,,,1.7840,41.88,41.208,26.9658,26.9638,0.3972,90.5486,5.5780e+00,9.9990e+03,,,,,,,
CalCOFI,0701JD,060,589,27-Jan-2007 9:39:11 AM,27-Jan-2007 1:39:11 AM,33.15050,-123.22168,080.0 090.0,080.0,090.0,476.000,479.942,5.2487,5.2488,34.1335,34.1322,34.1305,34.1306,0.64838,0.76,0.79,0.0248,,,1.7708,41.49,40.799,26.9639,26.9616,0.3975,90.5394,5.6331e+00,9.9990e+03,,,,,,,
CalCOFI,0701JD,060,589,27-Jan-2007 9:39:12 AM,27-Jan-2007 1:39:12 AM,33.15050,-123.22168,080.0 090.0,080.0,090.0,475.000,478.932,5.2450,5.2464,34.1307,34.1294,34.1277,34.1278,0.65885,0.77,0.81,0.0239,,,1.7834,41.86,41.190,26.9622,26.9596,0.3971,90.5506,5.5841e+00,9.9990e+03,,,,,,,
CalCOFI,0701JD,060,589,27-Jan-2007 9:39:13 AM,27-Jan-2007 1:39:13 AM,33.15050,-123.22168,080.0 090.0,080.0,090.0,474.000,477.923,5.2602,5.2601,34.1288,34.1275,34.1249,34.1250,0.66452,0.78,0.81,0.0245,,,1.7868,41.96,41.295,26.9588,26.9558,0.3973,90.5455,5.6631e+00,9.9990e+03,,,,,,,
CalCOFI,0701JD,060,589,27-Jan-2007 9:39:14 AM,27-Jan-2007 1:39:14 AM,33.15050,-123.22168,080.0 090.0,080.0,090.0,473.000,476.914,5.3003,5.3012,34.1305,34.1292,34.1262,34.1263,0.66861,0.78,0.82,0.0243,,,1.7834,41.86,41.190,26.9555,26.9520,0.3973,90.5454,5.2890e+00,9.9990e+03,,,,,,,
CalCOFI,0701JD,060,589,27-Jan-2007 9:39:15 AM,27-Jan-2007 1:39:15 AM,33.15050,-123.22168,080.0 090.0,080.0,090.0,472.000,475.904,5.3209,5.3215,34.1309,34.1296,34.1277,34.1278,0.67236,0.79,0.82,0.0247,,,1.7755,41.63,40.945,26.9534,26.9508,0.3974,90.5422,5.5382e+00,9.9990e+03,,,,,,,
CalCOFI,0701JD,060,589,27-Jan-2007 9:39:16 AM,27-Jan-2007 1:39:16 AM,33.15050,-123.22168,080.0 090.0,080.0,090.0,471.000,474.895,5.3241,5.3248,34.1312,34.1299,34.1282,34.1283,0.67469,0.79,0.83,0.0245,,,1.7802,41.77,41.090,26.9533,26.9509,0.3973,90.5441,5.5747e+00,9.9990e+03,,,,,,,
CalCOFI,0701JD,060,589,27-Jan-2007 9:39:17 AM,27-Jan-2007 1:39:17 AM,33.15050,-123.22168,080.0 090.0,080.0,090.0,470.000,473.885,5.3415,5.3423,34.1336,34.1323,34.1296,34.1297,0.67495,0.79,0.83,0.0242,,,1.7871,41.97,41.304,26.9531,26.9499,0.3974,90.5436,5.4098e+00,9.9990e+03,,,,,,,
CalCOFI,0701JD,060,589,27-Jan-2007 9:39:18 AM,27-Jan-2007 1:39:18 AM,33.15050,-123.22168,080.0 090.0,080.0,090.0,469.000,472.876,5.3605,5.3610,34.1349,34.1336,34.1314,34.1315,0.67311,0.79,0.82,0.0241,,,1.7823,41.83,41.155,26.9519,26.9491,0.3973,90.5465,5.4560e+00,9.9990e+03,,,,,,,
CalCOFI,0701JD,060,589,27-Jan-2007 9:39:19 AM,27-Jan-2007 1:39:19 AM,33.15050,-123.22168,080.0 090.0,080.0,090.0,468.000,471.866,5.3778,5.3781,34.1373,34.1360,34.1337,34.1338,0.66850,0.78,0.82,0.0248,,,1.7298,40.29,39.527,26.9517,26.9489,0.3973,90.5454,5.8531e+00,9.9990e+03,,,,,,,
CalCOFI,0701JD,060,589,27-Jan-2007 9:39:20 AM,27-Jan-2007 1:39:20 AM,33.15050,-123.22168,080.0 090.0,080.0,090.0,467.000,470.857,5.4185,5.4183,34.1432,34.1419,34.1382,34.1383,0.66293,0.77,0.81,0.0245,,,1.7356,40.46,39.707,26.9516,26.9477,0.3975,90.5396,5.6090e+00,9.9990e+03,,,,,,,
CalCOFI,0701JD,060,589,27-Jan-2007 9:39:21 AM,27-Jan-2007 1:39:21 AM,33.15050,-123.22168,080.0 090.0,080.0,090.0,466.000,469.848,5.4744,5.4737,34.1490,34.1477,34.1446,34.1447,0.65007,0.76,0.80,0.0239,,,1.7450,40.73,39.999,26.9496,26.9461,0.3975,90.5395,5.2987e+00,9.9990e+03,,,,,,,
CalCOFI,0701JD,060,589,27-Jan-2007 9:39:22 AM,27-Jan-2007 1:39:22 AM,33.15050,-123.22168,080.0 090.0,080.0,090.0,465.000,468.838,5.5156,5.5177,34.1574,34.1561,34.1505,34.1506,0.63309,0.74,0.78,0.0246,,,1.7671,41.38,40.684,26.9513,26.9456,0.3974,90.5421,5.1196e+00,9.9990e+03,,,,,,,
CalCOFI,0701JD,060,589,27-Jan-2007 9:39:23 AM,27-Jan-2007 1:39:23 AM,33.15050,-123.22168,080.0 090.0,080.0,090.0,464.000,467.829,5.6629,5.6626,34.1768,34.1755,34.1691,34.1692,0.61692,0.72,0.76,0.0244,,,1.7886,42.01,41.351,26.9488,26.9428,0.3975,90.5395,5.6066e+00,9.9990e+03,,,,,,,
CalCOFI,0701JD,060,589,27-Jan-2007 9:39:24 AM,27-Jan-2007 1:39:24 AM,33.15050,-123.22168,080.0 090.0,080.0,090.0,463.000,466.820,5.7135,5.7126,34.1790,34.1777,34.1763,34.1764,0.60960,0.71,0.75,0.0246,,,1.7641,41.29,40.591,26.9444,26.9424,0.3977,90.5353,5.6766e+00,9.9990e+03,,,,,,,
CalCOFI,0701JD,060,589,27-Jan-2007 9:39:25 AM,27-Jan-2007 1:39:25 AM,33.15050,-123.22168,080.0 090.0,080.0,090.0,462.000,465.810,5.7155,5.7165,34.1771,34.1758,34.1753,34.1754,0.60918,0.71,0.75,0.0247,,,1.7533,40.98,40.256,26.9426,26.9412,0.3975,90.5402,5.4133e+00,9.9990e+03,,,,,,,
CalCOFI,0701JD,060,589,27-Jan-2007 9:39:26 AM,27-Jan-2007 1:39:26 AM,33.15050,-123.22168,080.0 090.0,080.0,090.0,461.000,464.801,5.6881,5.6891,34.1686,34.1673,34.1680,34.1681,0.61323,0.71,0.75,0.0244,,,1.7531,40.97,40.250,26.9393,26.9387,0.3976,90.5385,5.0013e+00,9.9990e+03,,,,,,,
CalCOFI,0701JD,060,589,27-Jan-2007 9:39:27 AM,27-Jan-2007 1:39:27 AM,33.15050,-123.22168,080.0 090.0,080.0,090.0,460.000,463.791,5.6568,5.6559,34.1612,34.1599,34.1601,34.1602,0.61891,0.72,0.76,0.0240,,,1.7567,41.08,40.362,26.9372,26.9364,0.3977,90.5348,5.3343e+00,9.9990e+03,,,,,,,
CalCOFI,0701JD,060,589,27-Jan-2007 9:39:28 AM,27-Jan-2007 1:39:28 AM,33.15050,-123.22168,080.0 090.0,080.0,090.0,459.000,462.782,5.6401,5.6403,34.1577,34.1564,34.1556,34.1557,0.62395,0.73,0.76,-9.990e-29,,,1.7764,41.65,40.973,26.9365,26.9348,0.3977,90.5359,5.5975e+00,9.9990e+03,,,,,,,
CalCOFI,0701JD,060,589,27-Jan-2007 9:39:29 AM,27-Jan-2007 1:39:29 AM,33.15050,-123.22168,080.0 090.0,080.0,090.0,458.000,461.773,5.6377,5.6383,34.1566,34.1553,34.1542,34.1543,0.63131,0.74,0.77,-9.990e-29,,,1.7346,40.43,39.676,26.9358,26.9339,0.3988,90.5103,5.7565e+00,9.9990e+03,,,,,,,
CalCOFI,0701JD,060,589,27-Jan-2007 9:39:30 AM,27-Jan-2007 1:39:30 AM,33.15050,-123.22168,080.0 090.0,080.0,090.0,457.000,460.763,5.6262,5.6267,34.1515,34.1502,34.1508,34.1509,0.64374,0.75,0.79,-9.990e-29,,,1.7442,40.71,39.974,26.9332,26.9326,0.3978,90.5328,5.5737e+00,9.9990e+03,,,,,,,
CalCOFI,0701JD,060,589,27-Jan-2007 9:39:32 AM,27-Jan-2007 1:39:32 AM,33.15050,-123.22168,080.0 090.0,080.0,090.0,456.000,459.754,5.5902,5.5909,34.1419,34.1406,34.1410,34.1411,0.65749,0.77,0.81,0.0243,,,1.7443,40.71,39.977,26.9299,26.9291,0.3977,90.5364,5.7661e+00,9.9990e+03,,,,,,,
CalCOFI,0701JD,060,589,27-Jan-2007 9:39:33 AM,27-Jan-2007 1:39:33 AM,33.15050,-123.22168,080.0 090.0,080.0,090.0,455.000,458.745,5.5664,5.5664,34.1364,34.1351,34.1342,34.1343,0.66503,0.78,0.81,0.0242,,,1.7802,41.77,41.090,26.9284,26.9267,0.3977,90.5350,5.3832e+00,9.9990e+03,,,,,,,
CalCOFI,0701JD,060,589,27-Jan-2007 9:39:33 AM,27-Jan-2007 1:39:33 AM,33.15050,-123.22168,080.0 090.0,080.0,090.0,454.000,457.735,5.5963,5.5965,34.1421,34.1408,34.1375,34.1376,0.66554,0.78,0.82,0.0244,,,1.7422,40.65,39.912,26.9293,26.9256,0.3978,90.5339,5.7664e+00,9.9990e+03,,,,,,,
CalCOFI,0701JD,060,589,27-Jan-2007 9:39:34 AM,27-Jan-2007 1:39:34 AM,33.15050,-123.22168,080.0 090.0,080.0,090.0,453.000,456.726,5.6186,5.6194,34.1434,34.1421,34.1406,34.1407,0.66217,0.77,0.81,0.0242,,,1.7216,40.05,39.273,26.9277,26.9254,0.3986,90.5145,5.5443e+00,9.9990e+03,,,,,,,
CalCOFI,0701JD,060,589,27-Jan-2007 9:39:35 AM,27-Jan-2007 1:39:35 AM,33.15050,-123.22168,080.0 090.0,080.0,090.0,452.000,455.717,5.6384,5.6409,34.1475,34.1462,34.1439,34.1440,0.65329,0.76,0.80,0.0248,,,1.7582,41.12,40.408,26.9285,26.9253,0.3977,90.5355,6.1422e+00,9.9990e+03,,,,,,,
CalCOFI,0701JD,060,589,27-Jan-2007 9:39:36 AM,27-Jan-2007 1:39:36 AM,33.15050,-123.22168,080.0 090.0,080.0,090.0,451.000,454.707,5.7542,5.7557,34.1682,34.1669,34.1574,34.1575,0.63895,0.74,0.78,0.0245,,,1.7366,40.49,39.738,26.9308,26.9220,0.3977,90.5369,5.3255e+00,9.9990e+03,,,,,,,
CalCOFI,0701JD,060,589,27-Jan-2007 9:39:37 AM,27-Jan-2007 1:39:37 AM,33.15050,-123.22168,080.0 090.0,080.0,090.0,450.000,453.698,5.8665,5.8642,34.1762,34.1749,34.1715,34.1716,0.62536,0.73,0.77,0.0246,,,1.7264,40.19,39.422,26.9232,26.9198,0.3978,90.5339,5.8362e+00,9.9990e+03,,,,,,,
CalCOFI,0701JD,060,589,27-Jan-2007 9:39:38 AM,27-Jan-2007 1:39:38 AM,33.15050,-123.22168,080.0 090.0,080.0,090.0,449.000,452.689,5.8988,5.8984,34.1806,34.1793,34.1775,34.1776,0.61265,0.71,0.75,0.0246,,,1.7230,40.09,39.317,26.9227,26.9203,0.3979,90.5312,5.4810e+00,9.9990e+03,,,,,,,
CalCOFI,0701JD,060,589,27-Jan-2007 9:39:39 AM,27-Jan-2007 1:39:39 AM,33.15050,-123.22168,080.0 090.0,080.0,090.0,448.000,451.679,5.9280,5.9258,34.1859,34.1846,34.1819,34.1820,0.59826,0.70,0.73,0.0251,,,1.7056,39.58,38.777,26.9232,26.9203,0.3979,90.5300,5.3103e+00,9.9990e+03,,,,,,,
CalCOFI,0701JD,060,589,27-Jan-2007 9:39:41 AM,27-Jan-2007 1:39:41 AM,33.15050,-123.22168,080.0 090.0,080.0,090.0,447.000,450.670,5.9689,5.9704,34.1912,34.1899,34.1884,34.1885,0.58501,0.68,0.72,0.0243,,,1.7066,39.60,38.808,26.9223,26.9199,0.3980,90.5288,5.7197e+00,9.9990e+03,,,,,,,
CalCOFI,0701JD,060,589,27-Jan-2007 9:39:42 AM,27-Jan-2007 1:39:42 AM,33.15050,-123.22168,080.0 090.0,080.0,090.0,446.000,449.661,5.9765,5.9772,34.1911,34.1898,34.1892,34.1893,0.57914,0.67,0.71,0.0246,,,1.7237,40.11,39.338,26.9213,26.9197,0.3977,90.5351,5.8515e+00,9.9990e+03,,,,,,,
CalCOFI,0701JD,060,589,27-Jan-2007 9:39:42 AM,27-Jan-2007 1:39:42 AM,33.15050,-123.22168,080.0 090.0,080.0,090.0,445.000,448.651,5.9830,5.9840,34.1926,34.1913,34.1901,34.1902,0.57584,0.67,0.71,0.0246,,,1.7413,40.62,39.884,26.9216,26.9195,0.3980,90.5285,5.9870e+00,9.9990e+03,,,,,,,
CalCOFI,0701JD,060,589,27-Jan-2007 9:39:43 AM,27-Jan-2007 1:39:43 AM,33.15050,-123.22168,080.0 090.0,080.0,090.0,444.000,447.642,6.0304,6.0318,34.1957,34.1944,34.1928,34.1929,0.57556,0.67,0.71,0.0248,,,1.7481,40.82,40.095,26.9182,26.9157,0.3982,90.5243,5.5440e+00,9.9990e+03,,,,,,,
CalCOFI,0701JD,060,589,27-Jan-2007 9:39:44 AM,27-Jan-2007 1:39:44 AM,33.15050,-123.22168,080.0 090.0,080.0,090.0,443.000,446.633,6.0340,6.0350,34.1916,34.1903,34.1897,34.1898,0.57778,0.67,0.71,0.0254,,,1.7277,40.22,39.462,26.9144,26.9128,0.3979,90.5300,5.3079e+00,9.9990e+03,,,,,,,
CalCOFI,0701JD,060,589,27-Jan-2007 9:39:45 AM,27-Jan-2007 1:39:45 AM,33.15050,-123.22168,080.0 090.0,080.0,090.0,442.000,445.624,6.0488,6.0499,34.1908,34.1895,34.1887,34.1888,0.57704,0.67,0.71,0.0245,,,1.6972,39.33,38.517,26.9119,26.9101,0.3981,90.5256,5.7601e+00,9.9990e+03,,,,,,,
CalCOFI,0701JD,060,589,27-Jan-2007 9:39:45 AM,27-Jan-2007 1:39:45 AM,33.15050,-123.22168,080.0 090.0,080.0,090.0,441.000,444.614,6.0585,6.0593,34.1898,34.1885,34.1880,34.1881,0.57814,0.67,0.71,0.0248,,,1.6823,38.89,38.055,26.9099,26.9084,0.3982,90.5223,5.5875e+00,9.9990e+03,,,,,,,
CalCOFI,0701JD,060,589,27-Jan-2007 9:39:46 AM,27-Jan-2007 1:39:46 AM,33.15050,-123.22168,080.0 090.0,080.0,090.0,440.000,443.605,6.0613,6.0624,34.1889,34.1876,34.1876,34.1877,0.57794,0.67,0.71,0.0250,,,1.6925,39.19,38.371,26.9089,26.9077,0.3982,90.5234,5.4268e+00,9.9990e+03,,,,,,,
CalCOFI,0701JD,060,589,27-Jan-2007 9:39:49 AM,27-Jan-2007 1:39:49 AM,33.15050,-123.22177,080.0 090.0,080.0,090.0,439.000,442.596,6.0188,6.0272,34.1893,34.1880,34.1887,34.1888,0.57395,0.67,0.70,0.0247,,,1.7166,39.90,39.118,26.9145,26.9129,0.3981,90.5257,5.6064e+00,9.9990e+03,,,,,,,
CalCOFI,0701JD,060,589,27-Jan-2007 9:39:51 AM,27-Jan-2007 1:39:51 AM,33.15050,-123.22184,080.0 090.0,080.0,090.0,438.000,441.586,6.0092,6.0205,34.1904,34.1891,34.1875,34.1876,0.58737,0.68,0.72,0.0245,,,1.7166,39.90,39.118,26.9165,26.9129,0.3983,90.5216,5.4562e+00,9.9990e+03,,,,,,,
CalCOFI,0701JD,060,589,27-Jan-2007 9:39:52 AM,27-Jan-2007 1:39:52 AM,33.15050,-123.22184,080.0 090.0,080.0,090.0,437.000,440.577,6.0212,6.0261,34.1774,34.1761,34.1796,34.1797,0.59771,0.69,0.73,0.0249,,,1.7151,39.85,39.072,26.9047,26.9059,0.3981,90.5268,5.5855e+00,9.9990e+03,437,6.00 ,34.171,  .72,,,39.4
CalCOFI,0701JD,060,589,27-Jan-2007 9:39:56 AM,27-Jan-2007 1:39:56 AM,33.15050,-123.22184,080.0 090.0,080.0,090.0,436.000,439.568,5.9888,5.9850,34.1729,34.1716,34.1709,34.1710,0.59991,0.70,0.74,0.0247,,,1.7208,40.02,39.248,26.9052,26.9042,0.3984,90.5187,5.6698e+00,9.9990e+03,,,,,,,
CalCOFI,0701JD,060,589,27-Jan-2007 9:41:15 AM,27-Jan-2007 1:41:15 AM,33.15065,-123.22184,080.0 090.0,080.0,090.0,435.000,438.559,5.9556,5.9693,34.1655,34.1642,34.1700,34.1701,0.63808,0.74,0.78,0.0244,,,1.7224,40.07,39.298,26.9036,26.9054,0.3986,90.5147,5.8725e+00,9.9990e+03,,,,,,,
CalCOFI,0701JD,060,589,27-Jan-2007 9:41:16 AM,27-Jan-2007 1:41:16 AM,33.15066,-123.22184,080.0 090.0,080.0,090.0,434.000,437.549,5.9416,5.9468,34.1616,34.1603,34.1628,34.1629,0.64764,0.76,0.79,0.0246,,,1.7230,40.09,39.317,26.9022,26.9025,0.3991,90.5037,4.9642e+00,9.9990e+03,,,,,,,
CalCOFI,0701JD,060,589,27-Jan-2007 9:41:17 AM,27-Jan-2007 1:41:17 AM,33.15066,-123.22184,080.0 090.0,080.0,090.0,433.000,436.540,5.9313,5.9305,34.1561,34.1548,34.1541,34.1542,0.65049,0.76,0.80,0.0252,,,1.7246,40.13,39.366,26.8991,26.8976,0.3989,90.5067,5.9792e+00,9.9990e+03,,,,,,,